This demonstration page uses our WeatherBlox Daily Observations layout. Learn more.

39.92423, -83.80882

Hourly Observations for June 7, 2017

Temp ( °F °C ) Dew Point ( °F °C ) Humidity (%) Winds ( mph kmh ) Pressure ( in mb ) Visibility ( mi km ) Precip ( " mm )
12:58 am 00:58 Cloudy 61 16.3 53 11.5 73 73 NNE 8 13 29.99 1016 10 16.0934 0 0
1:58 am 01:58 Cloudy 61 16.3 52 11.2 72 72 NNE 12 19 29.98 1015 10 16.0934 0 0
2:58 am 02:58 Mostly Clear 60 15.4 52 11.1 76 76 N 7 11 29.96 1014 10 16.0934 0 0
3:58 am 03:58 Mostly Clear 58 14.5 53 11.4 82 82 N 8 13 29.96 1014 10 16.0934 0 0
4:38 am 04:38 Mostly Cloudy 59 15 54 12 82 82 N 6 9 29.97 1015 10 16.0934 0 0
4:58 am 04:58 Cloudy 59 15 54 12 82 82 N 8 13 29.97 1015 10 16.0934 0 0
5:18 am 05:18 Cloudy 59 15 55 13 88 88 N 9 15 29.97 1015 10 16.0934 0 0
5:58 am 05:58 Cloudy 59 14.8 55 12.6 87 87 N 9 15 29.98 1015 10 16.0934 0 0
6:58 am 06:58 Cloudy 59 14.8 55 12.7 87 87 N 6 9 30 1016 10 16.0934 0 0
7:37 am 07:37 Cloudy 59 15 55 13 88 88 NNE 6 9 30.01 1016 10 16.0934 0 0
7:46 am 07:46 Cloudy with Light Rain 59 15 55 13 88 88 NNE 8 13 30.02 1017 7 11.26538 0 0
7:53 am 07:53 Cloudy with Light Rain 59 15 57 14 94 94 N 10 17 30.02 1017 6 9.65604 0 0
7:59 am 07:59 Cloudy 58 14.2 57 13.9 98 98 NNE 8 13 30.02 1017 7 11.26538 0 0.0254
8:58 am 08:58 Cloudy 59 15.2 56 13.2 88 88 N 9 15 30.03 1017 10 16.0934 0 0
9:58 am 09:58 Mostly Cloudy 61 16.2 54 12.2 77 77 NE 10 17 30.03 1017 10 16.0934 0 0
10:41 am 10:41 Cloudy 63 17 52 11 68 68 NNE 10 17 30.03 1017 10 16.0934 0 0
10:58 am 10:58 Cloudy 62 16.9 52 11.1 69 69 NNE 15 24 30.04 1017 10 16.0934 0 0
11:18 am 11:18 Cloudy 61 16 52 11 72 72 NNE 9 15 30.04 1017 10 16.0934 0 0
11:58 am 11:58 Cloudy 60 15.5 53 11.7 78 78 NNE 13 20 30.05 1018 10 16.0934 0 0
12:08 pm 12:08 Cloudy 61 16 52 11 72 72 NNE 13 20 30.05 1018 10 16.0934 0 0
12:58 pm 12:58 Cloudy 61 15.9 50 9.9 68 68 NE 16 26 30.05 1018 10 16.0934 0 0
1:58 pm 13:58 Mostly Cloudy 64 17.7 50 9.8 60 60 NNE 16 26 30.04 1017 10 16.0934 0 0
2:58 pm 14:58 Cloudy 64 17.5 50 10.1 62 62 NE 15 24 30.05 1018 10 16.0934 0 0
3:58 pm 15:58 Cloudy 63 17.1 50 10 63 63 NNE 15 24 30.05 1018 10 16.0934 0 0
4:48 pm 16:48 Mostly Cloudy 63 17 50 10 64 64 N 8 13 30.04 1017 10 16.0934 0 0
4:58 pm 16:58 Cloudy 63 17.3 50 9.8 62 62 NNE 13 20 30.04 1017 10 16.0934 0 0
5:58 pm 17:58 Cloudy 62 16.8 50 9.9 64 64 NE 9 15 30.04 1017 10 16.0934 0 0
6:58 pm 18:58 Cloudy 62 16.5 50 10 66 66 NE 10 17 30.04 1017 10 16.0934 0 0
7:58 pm 19:58 Mostly Cloudy 62 16.7 50 10 65 65 NE 12 19 30.04 1017 10 16.0934 0 0
8:58 pm 20:58 Partly Cloudy 59 15.2 50 10.2 72 72 ENE 7 11 30.06 1018 10 16.0934 0 0
9:58 pm 21:58 Cloudy 59 15.1 51 10.5 74 74 Calm 30.04 1017 10 16.0934 0 0
10:58 pm 22:58 Cloudy 59 15.1 51 10.7 75 75 NE 6 9 30.05 1018 10 16.0934 0 0
11:58 pm 23:58 Partly Cloudy 57 14 50 10.2 78 78 ENE 7 11 30.06 1018 10 16.0934 0 0

Powered by AerisWeather